GFSSW_sfc_dewp_000.txt.gz
Dewpoint
54 54 54 53 54 53 53 54 54 54 54 54 54 54 54 55 55 47 32 33 40 62 64 57 54 48 46 44 45 44 39 37 36 33 33 33 29 26 27 27 27 27 36 40 43
54 54 54 54 55 55 54 53 53 53 54 54 54 54 54 55 51 41 42 56 57 63 49 48 46 48 43 43 43 42 40 39 39 36 33 34 31 26 24 25 27 33 41 43 41
53 53 54 55 54 55 55 54 53 53 54 53 53 54 54 54 43 32 57 56 58 62 35 42 46 44 42 42 41 41 38 39 39 37 34 33 32 27 23 22 24 29 39 41 41
52 52 52 52 53 55 55 54 53 53 53 53 53 53 55 52 8 23 63 65 62 54 39 31 32 40 42 40 40 39 40 40 39 37 34 31 31 29 25 25 26 31 39 41 40
50 51 51 51 51 52 54 54 54 53 53 53 53 53 51 44 26 18 62 61 59 47 40 31 30 29 34 41 41 40 39 39 37 35 34 33 30 27 26 29 30 32 37 39 40
49 48 50 51 51 51 53 54 55 54 54 54 53 54 49 31 25 26 25 29 39 43 37 30 27 27 27 30 35 39 40 39 37 36 35 33 32 28 29 31 30 29 35 35 37
51 50 48 48 50 51 52 52 53 55 54 53 54 50 46 34 26 28 28 27 36 36 30 32 28 28 26 25 26 31 33 35 35 31 29 30 28 28 30 30 30 28 30 34 35
52 52 51 50 48 50 51 52 53 52 52 53 54 49 42 39 37 28 20 14 24 26 32 27 30 27 26 26 25 26 26 25 27 28 28 29 27 29 31 30 31 31 28 30 34
52 53 52 51 50 48 50 52 52 51 52 52 49 47 36 38 34 26 29 21 16 21 29 30 27 24 24 23 22 24 22 23 24 29 29 28 27 29 30 30 30 31 33 33 32
51 52 53 52 51 50 50 51 50 49 48 48 48 43 37 21 20 26 21 28 21 24 25 31 32 23 22 23 18 20 22 25 25 26 28 28 28 28 29 30 29 31 34 36 35
50 51 52 52 52 51 49 45 43 45 47 42 38 31 24 25 28 24 27 24 28 24 21 28 26 21 21 22 23 25 24 25 25 26 28 28 28 28 31 32 28 30 32 35 38
51 51 51 52 52 52 46 42 38 40 36 38 41 38 30 27 25 26 30 26 23 23 19 25 18 18 22 25 24 23 25 24 25 25 26 26 27 29 31 32 31 32 33 35 43
52 52 52 51 52 46 43 41 41 40 36 36 37 37 37 34 30 26 28 28 18 20 17 17 23 22 19 21 24 23 22 26 25 27 27 27 27 30 32 35 34 33 35 41 43
52 52 52 52 44 41 35 40 40 41 32 28 30 32 35 35 32 30 27 25 22 15 18 16 19 21 18 16 23 21 25 25 28 28 25 27 24 26 27 27 28 29 32 40 41
52 51 52 51 43 41 34 35 37 39 7 10 15 29 31 32 29 28 26 24 21 17 18 16 14 16 15 15 20 23 25 26 27 27 25 23 22 23 27 25 27 30 35 41 40
52 51 51 47 46 45 43 40 39 26 17 12 17 22 27 30 26 27 26 24 21 18 17 14 18 14 14 17 21 25 27 26 26 26 23 23 24 23 25 26 28 31 37 39 42
51 51 50 45 42 44 43 40 29 24 20 14 16 17 15 28 27 26 23 19 18 15 16 16 15 15 14 15 18 24 24 23 23 23 24 25 25 26 29 31 28 25 35 41 44
51 50 48 46 46 45 41 37 27 20 19 19 21 18 16 23 26 25 23 17 19 13 14 14 13 15 16 15 13 13 16 23 19 21 21 24 21 22 27 28 30 32 39 43 45
50 45 43 45 46 44 39 28 22 21 20 23 22 19 18 21 21 26 24 16 17 16 14 14 15 19 15 14 14 14 17 17 22 26 21 23 25 30 29 30 38 41 42 43 45
45 41 41 43 45 44 35 28 27 27 26 25 22 23 21 22 27 27 25 25 18 18 17 19 18 18 16 14 14 11 18 18 23 19 19 22 23 25 25 31 40 41 42 44 46
40 37 39 44 46 39 28 27 27 26 28 27 26 22 23 27 28 27 25 28 27 19 17 17 21 22 16 14 10 11 14 23 23 24 21 19 21 28 24 28 39 39 42 43 45
38 32 43 47 36 35 32 29 32 27 30 28 27 24 25 32 28 28 27 29 32 31 23 16 19 17 17 21 14 11 13 23 20 20 21 23 21 30 30 34 38 40 41 43 45
35 35 43 44 27 31 30 29 29 28 27 27 25 26 27 27 25 31 31 32 33 31 30 22 17 22 25 20 23 12 18 23 24 26 22 17 20 31 36 38 39 40 41 43 46
36 29 37 39 39 33 32 30 28 26 25 25 26 27 28 26 26 27 31 30 34 30 39 34 20 16 17 18 21 19 15 24 23 22 24 20 24 29 38 39 42 42 42 42 45
35 31 35 27 29 31 31 28 27 26 25 25 26 28 26 27 27 26 25 33 32 34 30 29 23 17 15 20 25 23 16 24 20 22 20 23 25 26 34 40 42 43 42 41 44
36 34 36 33 32 29 28 27 27 28 28 26 25 25 25 27 29 31 29 30 31 31 29 30 31 22 19 16 16 18 23 23 22 25 25 24 26 30 34 41 42 42 41 40 42
40 41 38 33 30 27 28 31 31 31 32 29 28 26 26 26 33 35 37 32 32 31 29 29 32 30 20 21 17 16 21 24 23 27 26 22 23 30 32 40 41 41 40 39 40

GFSSW_sfc_dewp_003.txt.gz
Dewpoint
54 54 54 55 55 54 54 54 54 54 54 54 54 54 54 55 55 43 24 32 41 60 63 60 52 48 45 43 44 43 39 37 37 34 34 34 32 32 29 27 26 28 37 39 42
52 52 52 53 54 55 55 54 54 54 54 54 54 54 54 55 51 43 44 55 58 61 49 52 49 47 44 43 42 41 39 37 35 36 35 36 36 35 29 29 25 28 36 44 42
51 52 52 52 52 52 53 54 54 54 54 54 53 54 54 54 39 22 55 57 57 61 38 47 46 46 43 42 42 41 36 37 36 38 40 37 35 36 28 29 30 26 31 42 41
49 49 50 51 51 51 51 52 53 54 54 54 54 54 54 51 9 14 63 67 65 54 35 35 43 43 41 39 40 38 40 39 37 38 39 37 37 34 32 31 32 30 36 41 40
51 51 50 49 49 50 51 51 52 53 54 54 54 54 51 45 27 15 57 59 57 48 36 28 32 40 39 41 40 38 38 38 39 39 38 37 35 34 33 34 31 30 39 41 40
52 52 52 51 50 49 50 52 52 52 53 54 54 54 48 33 24 29 24 25 31 45 41 32 29 29 29 30 33 40 39 40 40 40 39 36 36 36 36 36 33 31 38 41 40
52 52 52 52 52 51 50 50 52 53 52 52 53 49 45 41 29 29 28 29 27 40 37 37 31 28 28 25 26 28 28 30 32 35 35 36 33 32 32 32 31 30 32 39 41
51 52 51 51 52 51 51 51 50 50 51 52 52 49 42 44 44 41 31 17 18 23 33 32 33 29 27 26 25 23 26 24 28 32 34 30 30 30 31 31 32 32 31 35 38
52 52 50 50 51 51 52 52 50 49 50 51 47 46 40 44 42 38 28 18 8 13 22 26 30 27 25 24 22 24 21 22 23 28 29 29 27 30 33 31 31 31 33 31 34
51 51 51 51 51 52 52 51 49 49 48 46 44 43 42 27 20 25 25 23 22 20 24 24 28 24 22 23 16 16 19 21 23 25 27 27 29 30 31 32 31 31 31 33 32
50 51 51 51 51 52 50 43 37 44 46 40 37 34 26 34 29 28 25 21 28 26 18 27 27 25 24 22 21 17 19 18 20 25 27 28 29 30 30 31 30 32 32 33 36
51 50 50 51 51 52 47 40 37 40 37 39 40 41 42 42 36 30 24 21 26 15 21 23 22 28 28 25 22 22 22 23 25 26 27 26 26 27 29 29 30 31 33 33 40
52 51 51 51 52 45 41 41 42 41 37 36 36 35 35 36 35 32 27 26 17 17 16 15 18 27 29 23 22 22 20 21 22 26 28 27 27 28 28 31 34 34 34 37 40
52 52 51 52 44 41 40 38 37 37 30 24 32 32 34 32 30 32 30 28 22 10 16 17 16 20 22 20 19 21 24 23 24 26 25 29 25 26 28 28 28 30 31 34 40
52 50 51 51 44 41 39 42 43 37 4 6 20 32 34 27 22 21 29 27 25 14 14 12 14 15 20 18 19 21 25 26 28 26 26 25 25 25 27 26 27 27 29 33 41
51 50 51 46 45 43 45 45 40 31 15 13 18 20 24 31 30 28 27 26 26 21 15 8 16 15 16 21 21 20 26 26 25 27 24 24 25 24 25 25 26 28 29 40 41
51 50 49 47 40 43 45 40 27 22 19 15 21 22 15 18 27 29 26 21 20 19 18 17 13 16 16 19 21 19 24 22 22 24 24 25 25 25 27 29 27 28 31 41 45
51 50 48 46 45 45 41 34 22 20 20 22 23 20 18 23 24 27 26 21 18 18 16 15 14 15 16 14 15 16 21 24 20 21 22 25 24 24 28 29 31 30 34 43 46
49 44 44 43 46 45 39 27 22 23 22 24 23 20 20 24 27 28 25 23 17 18 15 15 15 19 15 15 14 15 21 25 21 26 22 24 26 28 28 28 35 38 40 43 46
43 42 40 42 46 44 35 23 27 27 26 26 21 23 21 22 27 28 27 30 27 18 19 20 15 16 16 16 16 15 19 15 18 16 18 23 23 24 24 30 37 40 40 44 47
39 37 37 47 45 39 27 24 27 27 26 26 26 22 23 27 29 27 27 30 32 31 28 15 18 19 16 16 13 13 13 18 22 24 22 20 23 27 23 29 36 38 41 44 47
36 30 41 46 36 34 28 30 33 28 28 28 28 26 23 27 27 25 27 30 32 31 29 29 16 13 17 19 16 14 12 13 15 18 22 23 22 28 26 27 37 39 42 44 47
36 35 41 43 29 29 30 29 29 27 27 25 26 25 24 22 25 26 30 32 29 30 31 32 23 17 18 18 20 13 11 11 17 24 21 20 21 33 32 28 38 39 42 44 47
38 29 33 38 37 33 30 29 29 29 27 26 25 24 23 25 25 26 24 27 28 28 37 31 31 18 13 16 18 19 13 12 16 16 17 20 19 29 36 36 38 40 42 44 46
34 30 35 29 28 31 29 29 26 27 28 26 25 27 24 25 29 28 28 30 25 33 31 29 27 29 17 13 22 22 18 14 15 14 17 18 19 24 36 37 38 40 43 44 46
33 35 37 33 33 30 27 27 29 29 30 26 28 29 29 24 28 29 32 32 29 31 31 31 25 31 29 15 12 13 22 17 19 19 21 23 22 26 34 41 42 41 42 43 45
41 41 37 31 30 25 25 29 28 31 31 31 30 26 26 27 32 31 34 37 35 31 30 30 28 24 26 21 16 15 15 20 22 24 22 21 23 31 36 40 42 43 41 42 44

GFSSW_sfc_dewp_006.txt.gz
Dewpoint
51 52 52 51 52 53 53 54 54 54 55 55 54 54 54 54 55 45 32 31 41 60 63 57 51 48 47 43 44 44 39 36 35 35 33 34 33 35 34 30 28 30 32 36 45
50 50 50 51 50 50 51 52 52 53 54 54 54 54 54 55 51 44 41 55 59 64 53 50 47 46 42 42 43 41 39 37 35 34 35 36 38 38 34 36 31 28 31 38 44
51 51 51 49 49 49 50 51 51 51 53 54 54 54 54 54 39 19 53 53 58 59 43 47 46 46 43 43 41 41 38 38 36 35 38 39 39 40 37 36 37 34 34 36 42
52 52 52 51 51 50 49 49 51 51 52 53 54 54 55 50 4 19 64 65 65 52 35 45 46 43 42 40 42 40 40 38 37 37 37 37 39 39 39 38 38 37 36 39 41
51 51 52 52 52 52 51 51 49 51 52 52 52 54 50 43 30 16 53 48 51 47 31 34 44 42 40 40 39 38 39 39 40 39 38 39 39 38 38 39 39 38 35 34 41
51 51 51 50 51 52 52 52 51 50 49 51 51 53 47 38 36 26 39 27 31 45 39 30 33 41 38 37 39 40 39 38 39 38 37 38 38 39 40 41 39 37 36 35 41
51 51 51 50 50 50 52 52 52 51 50 49 51 48 45 41 43 44 43 35 26 40 39 35 29 26 29 26 28 27 28 29 29 28 30 33 34 34 37 38 35 34 33 34 41
50 51 51 50 50 50 51 52 52 51 51 49 50 45 40 44 45 44 44 39 36 19 34 38 35 30 27 27 25 24 26 22 23 29 30 33 28 31 34 34 33 32 32 34 36
51 52 51 50 51 51 51 52 51 51 50 47 44 42 36 45 41 44 42 32 23 16 15 22 34 30 26 25 23 23 18 19 20 23 25 31 25 30 33 33 32 33 34 34 34
51 51 51 50 51 51 52 50 49 48 45 44 42 37 41 31 37 34 39 35 20 12 15 19 27 27 25 24 18 19 19 21 19 20 26 26 27 29 29 31 33 34 34 34 36
50 51 52 50 50 51 49 41 36 40 43 36 35 36 34 36 38 33 28 31 23 21 12 22 21 22 20 24 23 20 16 14 19 22 24 25 27 29 31 31 30 30 31 33 35
51 50 51 50 50 51 45 38 38 39 36 38 38 38 39 39 36 37 28 21 22 15 15 24 18 18 24 25 24 23 18 16 21 26 26 27 26 27 28 29 30 31 30 31 36
51 51 50 50 51 43 39 40 41 37 36 35 36 35 36 37 37 31 35 22 21 14 14 10 13 19 25 26 24 22 21 20 21 26 28 27 25 27 29 31 31 32 35 35 36
51 51 51 51 42 41 41 39 43 42 31 28 33 34 34 33 31 28 32 25 17 13 10 12 11 16 25 27 26 24 25 24 25 26 21 28 25 26 28 28 29 28 29 33 37
51 50 50 50 43 39 40 44 44 39 15 9 23 33 34 28 26 23 29 28 24 11 14 10 12 14 19 24 28 25 25 25 27 26 25 25 24 24 28 27 27 29 29 30 34
51 50 50 45 44 43 44 44 41 27 16 17 22 23 19 28 30 28 29 28 28 14 12 9 15 13 15 23 24 23 23 25 26 25 21 22 24 23 26 26 27 29 30 37 42
50 50 49 46 39 42 43 39 26 20 21 18 23 23 18 25 25 27 26 24 23 22 17 16 10 17 16 14 24 22 20 18 20 21 21 23 24 20 27 29 27 27 30 41 46
50 48 46 45 43 44 39 33 20 18 19 23 25 19 17 25 26 28 28 25 22 21 19 16 15 12 18 15 15 20 20 19 14 20 22 26 24 25 30 30 31 31 32 43 47
48 43 41 42 44 44 35 23 20 23 25 24 23 19 20 21 25 30 27 29 24 20 16 17 16 18 14 15 15 18 18 21 22 24 22 24 26 27 29 27 28 34 40 43 47
43 41 38 43 45 44 31 22 27 27 25 24 21 23 19 19 22 28 27 31 28 30 19 19 16 17 15 15 16 16 20 18 19 17 18 21 24 24 26 25 32 37 38 43 48
39 33 36 46 45 39 28 24 26 27 27 26 25 25 20 22 24 26 30 34 32 28 31 20 17 18 18 16 13 15 16 19 19 22 20 19 22 28 26 26 29 34 38 44 47
39 26 39 45 36 34 28 30 32 29 29 27 29 28 25 25 25 28 29 31 36 30 26 32 22 16 16 17 16 14 14 20 15 20 21 23 23 29 28 28 30 34 40 44 47
35 34 39 44 29 29 31 30 30 28 27 26 25 24 24 23 23 25 28 32 35 33 31 31 25 17 17 17 19 14 14 13 19 23 19 17 21 29 34 33 34 36 42 46 47
35 28 32 36 36 33 29 27 28 29 28 27 25 25 24 24 25 28 28 27 34 32 40 32 27 26 14 14 18 16 14 13 13 14 18 20 22 23 33 31 36 40 43 46 47
32 28 33 28 26 30 32 29 27 27 32 31 27 28 28 25 26 29 31 32 32 36 36 30 26 28 27 27 22 20 16 14 12 13 13 16 19 22 24 34 38 41 44 46 47
32 34 34 33 33 28 28 25 28 29 30 30 28 29 28 26 26 27 28 32 32 34 34 31 26 27 26 27 26 20 15 15 13 13 13 21 18 21 31 40 41 41 43 45 46
40 42 38 32 32 30 29 29 29 30 30 32 29 28 27 26 31 29 30 32 34 32 32 30 27 25 21 25 22 17 16 15 18 15 14 17 15 29 37 39 41 42 43 44 46

GFSSW_sfc_dewp_009.txt.gz
Dewpoint
50 50 50 50 50 50 49 50 51 51 53 54 55 55 55 55 54 41 19 32 40 58 62 55 52 45 35 35 46 45 37 31 31 32 29 32 31 35 36 36 34 32 36 37 42
51 51 50 51 51 50 50 49 50 51 51 52 54 54 54 55 48 40 41 53 57 60 48 43 39 44 41 41 41 41 38 35 34 32 31 33 35 36 36 35 36 37 38 37 39
51 52 52 52 52 52 52 51 50 49 50 50 52 53 54 53 28 10 60 57 53 62 38 37 34 40 37 42 41 39 37 37 36 35 35 35 35 36 35 34 34 36 38 40 41
51 50 50 50 51 51 52 52 51 51 50 50 51 52 54 48 14 37 53 62 65 47 32 30 35 38 32 36 39 36 38 38 37 37 37 36 36 37 38 38 39 40 41 40 41
50 51 51 50 50 49 50 51 51 51 51 49 50 51 48 42 27 19 47 45 42 48 31 30 36 32 30 33 35 39 37 38 39 39 39 39 39 39 38 38 38 39 41 42 43
50 50 50 51 49 49 49 51 52 52 52 51 49 50 45 37 39 38 39 39 22 40 33 30 33 34 30 33 34 31 36 36 37 38 38 37 37 37 38 40 38 40 41 40 41
49 50 51 50 50 49 50 52 52 51 51 50 50 45 41 37 41 41 40 40 34 32 27 29 28 35 34 31 34 35 35 37 37 38 37 34 29 30 33 33 35 37 38 40 40
50 51 51 51 50 50 50 52 52 51 51 50 50 43 36 41 42 42 42 42 41 37 33 30 30 25 28 28 25 24 26 21 22 26 26 26 22 25 29 32 34 36 37 37 39
50 51 51 51 50 50 51 52 50 50 50 48 44 41 33 42 38 41 43 38 31 33 27 20 34 30 26 24 24 25 19 21 21 24 23 28 23 23 29 31 33 34 35 36 38
49 51 52 51 51 51 52 50 48 48 44 43 40 35 32 28 35 36 38 40 33 23 22 17 27 24 24 22 18 20 21 21 21 21 21 19 23 26 29 30 33 34 35 37 38
50 51 51 51 50 51 49 42 37 38 38 34 33 30 29 30 32 28 36 37 35 19 16 16 18 19 17 22 23 23 23 23 24 21 19 19 22 28 29 31 31 33 35 38 41
50 50 51 50 50 50 44 38 38 38 34 34 36 34 35 34 32 27 31 27 26 18 17 17 16 17 19 17 19 21 22 21 21 20 22 22 24 27 29 29 30 35 36 38 40
51 51 50 50 51 43 42 40 41 42 35 32 34 34 34 35 34 31 31 25 20 18 15 15 14 15 17 17 19 20 18 20 20 21 23 24 23 23 25 32 31 32 35 38 40
51 51 51 51 42 42 39 41 44 43 30 24 28 31 31 34 31 33 28 24 19 16 16 13 13 13 14 16 20 18 20 20 20 22 16 25 19 25 25 27 28 30 36 38 39
51 50 50 49 44 39 39 44 43 40 10 13 27 33 24 27 26 25 30 26 24 15 16 14 12 13 14 16 21 19 20 23 23 24 24 22 22 22 26 25 26 29 30 37 39
50 49 49 45 44 42 44 44 41 28 12 16 22 23 17 20 23 28 27 26 24 24 15 14 14 11 12 17 23 24 23 25 26 24 20 21 23 21 23 24 24 30 33 36 42
50 48 46 44 40 43 44 40 27 17 17 18 22 22 15 18 22 26 27 25 17 22 20 13 11 13 11 16 22 26 26 18 17 18 17 21 22 23 23 23 27 30 32 39 47
49 48 44 44 46 46 43 34 20 14 18 22 23 18 9 19 22 24 26 24 24 22 20 15 11 10 13 12 19 25 24 17 18 18 15 25 20 22 29 28 28 32 36 41 48
48 43 42 43 44 44 37 25 13 19 24 23 21 16 14 17 19 22 25 32 27 23 22 19 16 14 13 12 16 22 21 21 16 25 21 24 28 31 32 32 34 34 37 43 48
41 40 41 45 46 45 34 23 24 26 25 24 18 17 16 16 19 22 26 37 33 32 32 26 20 17 12 12 13 14 18 19 17 14 13 16 24 24 30 30 32 34 39 44 48
42 37 41 45 45 38 29 25 26 27 27 25 23 22 21 17 24 26 26 29 35 33 33 29 23 19 14 15 12 16 18 19 21 18 14 11 13 33 33 33 32 34 41 45 47
41 32 40 46 36 35 30 28 32 28 28 27 28 27 26 25 22 24 28 30 35 35 33 34 31 19 17 16 17 16 18 22 14 21 16 21 17 32 36 34 35 34 41 45 47
35 34 41 44 30 29 26 27 29 28 27 27 26 25 25 24 25 26 30 32 34 32 35 36 27 20 18 19 19 17 17 21 26 27 21 13 16 30 36 35 35 38 42 46 48
38 31 36 41 36 31 28 24 26 28 28 28 28 28 27 24 25 25 30 31 35 32 39 36 29 26 14 19 21 18 17 18 22 18 20 19 14 22 24 31 37 41 44 45 47
38 30 35 30 31 32 28 27 26 26 29 30 28 30 30 25 24 29 31 34 35 36 35 34 28 26 25 25 26 18 15 15 17 18 17 19 19 19 29 29 36 42 45 46 47
36 35 36 33 32 30 28 25 26 26 28 25 28 28 26 24 26 25 27 29 33 35 30 33 27 28 25 23 23 22 20 17 16 16 17 17 18 22 25 30 38 42 44 45 46
41 43 38 32 31 31 29 29 30 35 31 30 30 32 28 26 28 29 30 29 29 31 32 31 29 28 22 25 24 20 21 21 18 18 18 16 21 20 23 31 38 44 44 44 46

GFSSW_sfc_dewp_015.txt.gz
Dewpoint
51 51 51 51 51 51 52 53 53 52 52 51 51 51 53 54 54 42 38 35 39 60 63 45 46 45 39 35 29 32 30 28 28 27 26 26 26 27 30 31 31 31 32 34 35
50 51 51 51 50 51 51 51 51 52 52 52 52 51 52 54 45 33 42 59 61 61 30 34 40 37 38 36 31 30 31 31 30 28 28 28 27 28 28 30 31 31 33 34 35
49 50 50 51 51 51 50 50 51 51 51 52 51 52 51 51 34 18 56 57 60 58 21 24 35 33 31 34 33 31 31 33 32 30 30 30 30 29 30 31 31 31 33 35 36
49 49 50 51 51 51 51 50 50 51 51 51 52 51 51 44 16 40 49 53 56 49 30 19 24 33 28 28 30 32 33 33 32 32 31 30 29 30 31 32 32 31 35 36 35
50 50 51 51 51 51 51 51 51 51 51 51 51 51 44 32 27 32 51 49 34 43 39 26 21 29 30 26 27 27 29 30 31 31 31 31 30 31 31 32 33 33 35 36 36
50 50 51 51 51 51 52 53 52 51 51 51 51 51 42 28 26 26 28 29 31 30 37 29 24 25 30 30 27 28 27 26 27 27 29 30 30 30 32 32 32 33 34 34 33
50 51 51 51 51 51 52 52 52 52 51 51 51 47 39 30 25 24 26 26 26 27 25 30 29 25 29 30 30 30 28 29 28 26 26 29 29 30 31 31 32 32 32 32 31
50 52 51 51 51 51 51 52 52 52 51 52 51 45 36 27 25 21 21 21 25 28 30 28 29 29 29 30 29 28 30 28 28 27 27 28 28 30 31 31 31 29 28 29 32
51 51 51 51 51 51 52 52 51 52 51 50 47 41 29 36 27 27 25 23 25 27 29 29 26 26 26 26 28 29 27 27 27 28 28 28 28 30 30 30 32 32 30 30 32
51 51 51 51 51 51 51 51 49 48 48 43 40 33 32 19 14 24 30 27 26 28 27 28 26 23 23 22 21 24 25 26 25 25 26 26 28 29 28 28 30 30 30 31 32
50 51 51 51 51 51 48 36 34 36 38 30 22 28 19 16 14 15 21 22 30 29 26 27 21 18 19 24 23 23 23 23 24 25 25 26 26 27 28 29 29 31 32 33 33
50 50 51 51 51 51 46 31 32 33 30 28 23 21 20 21 19 19 20 20 24 25 25 23 21 20 18 19 21 21 21 23 25 25 26 27 26 28 29 30 31 32 32 33 33
51 51 50 50 50 47 34 33 34 34 30 24 19 16 17 22 21 21 18 18 17 20 22 21 21 19 16 16 18 21 22 24 23 26 27 28 28 28 28 30 30 30 31 32 34
51 51 50 48 44 36 31 34 33 35 27 13 19 20 23 25 24 27 24 18 14 12 20 19 18 17 16 15 15 19 21 23 24 25 23 26 22 27 27 27 27 29 30 31 33
51 51 50 48 42 35 34 34 34 36 15 11 14 28 20 18 16 21 25 24 14 11 11 17 18 17 17 16 16 18 20 23 24 23 24 22 21 23 24 24 26 28 28 31 32
51 50 48 42 43 38 36 36 34 30 15 12 16 20 15 13 14 12 18 25 24 17 13 15 18 17 17 16 15 16 19 22 24 22 20 22 21 21 21 23 24 27 28 30 31
51 50 46 42 37 38 39 35 31 21 17 19 20 17 20 11 7 7 9 17 20 18 14 13 15 17 17 16 18 18 23 19 21 20 22 21 20 22 25 23 25 27 28 29 38
50 48 45 40 40 40 39 35 25 14 14 14 11 10 7 6 6 3 12 14 15 20 15 7 8 15 18 16 17 17 22 18 21 19 16 20 19 19 24 26 26 26 28 40 45
48 41 39 41 42 41 37 30 19 17 17 17 18 19 15 13 9 10 9 12 27 34 34 17 7 8 16 16 15 18 17 21 21 20 18 16 21 24 27 28 26 28 29 40 46
43 36 37 41 44 40 37 24 16 16 17 20 20 23 18 14 14 14 10 32 26 28 35 29 17 10 15 16 16 17 18 18 20 19 18 17 20 17 25 24 25 30 30 37 46
43 33 37 40 42 38 33 22 17 17 19 22 23 20 19 21 19 17 19 26 31 27 29 29 36 27 19 19 15 13 15 19 22 18 17 18 16 23 27 26 26 27 32 42 46
37 28 34 40 40 39 30 21 26 18 19 19 24 28 25 24 21 18 24 27 29 30 30 29 33 33 22 20 16 15 19 23 19 23 16 16 18 28 27 29 35 33 39 44 46
33 29 37 37 35 33 27 23 21 24 19 18 21 23 24 25 24 23 23 36 35 35 36 36 32 28 32 24 17 16 16 22 26 26 22 14 17 27 30 32 34 35 40 44 45
33 30 28 35 31 32 28 27 24 23 23 22 24 23 29 25 23 26 26 29 34 36 40 41 34 32 31 23 16 17 16 19 25 22 21 17 19 26 31 32 36 40 43 43 44
33 28 32 30 32 30 30 28 28 27 32 30 26 23 25 23 20 19 25 23 30 36 38 40 30 28 35 34 26 15 14 16 21 22 19 20 16 23 29 32 35 41 42 42 43
34 32 32 31 30 29 29 29 26 27 31 28 28 27 26 24 22 22 19 24 29 31 38 38 32 28 28 34 32 15 15 14 16 20 19 17 18 19 22 26 30 36 40 42 42
39 38 40 32 29 29 30 27 29 29 31 31 29 30 29 26 28 28 27 27 27 27 29 35 37 30 30 33 30 20 19 15 16 20 21 18 21 23 23 29 38 39 39 41 42

GFSSW_sfc_dewp_021.txt.gz
Dewpoint
49 50 50 51 51 51 52 52 52 52 52 52 53 53 53 53 54 44 41 40 47 56 59 46 44 42 42 47 47 37 27 26 26 29 30 31 29 30 32 31 33 35 36 37 37
50 50 50 50 51 52 52 52 52 52 52 52 52 53 53 54 48 42 45 57 56 62 43 31 28 42 46 46 46 45 29 25 27 27 29 30 29 30 30 33 33 35 38 38 37
50 51 50 51 51 52 52 52 52 52 52 52 52 52 53 52 42 28 59 58 55 60 35 30 29 32 41 39 42 43 39 33 28 27 28 29 30 31 31 32 34 35 36 37 36
50 51 51 51 51 52 52 52 52 52 52 52 52 52 52 48 20 33 60 61 63 48 33 27 23 22 22 37 35 35 35 37 33 29 28 28 30 30 31 32 34 32 35 37 36
51 51 51 51 51 52 52 52 52 52 52 52 52 51 47 37 34 27 57 57 36 32 27 25 21 21 20 23 35 32 32 32 34 32 30 30 30 30 30 33 34 32 32 35 36
52 51 51 51 51 52 53 53 53 52 52 51 51 50 46 37 32 26 23 29 34 32 29 27 26 26 25 22 21 31 32 30 30 31 32 31 30 28 29 31 29 28 29 33 36
53 52 51 51 52 52 53 52 52 53 51 51 51 47 42 39 32 29 30 28 25 24 26 30 34 32 26 23 24 24 23 27 32 29 27 28 26 27 28 29 28 29 30 32 34
52 52 51 51 51 52 52 52 52 52 51 52 52 47 39 37 36 34 33 30 25 22 21 22 23 24 28 28 26 24 24 21 23 27 29 29 25 27 29 29 32 31 30 31 35
52 52 51 51 51 51 52 52 53 52 52 52 48 45 35 38 33 31 28 24 21 20 20 18 19 22 25 26 25 25 22 22 22 24 25 27 26 30 31 31 30 31 31 31 33
52 52 52 52 51 52 52 51 50 51 48 44 44 40 38 30 28 26 29 26 26 21 19 19 20 21 21 22 22 23 24 23 22 24 25 25 26 28 29 29 29 30 32 33 35
51 51 52 52 52 51 49 44 31 36 41 33 30 37 36 34 34 22 24 19 19 22 19 21 18 20 20 21 25 23 23 23 24 25 26 26 26 27 29 29 28 29 32 34 33
50 51 52 52 52 51 48 41 30 28 25 26 26 25 25 27 23 21 20 15 15 15 19 22 18 19 23 21 21 22 19 19 22 25 25 25 25 28 28 28 29 29 35 35 37
51 51 52 52 52 48 40 31 31 30 26 25 24 25 24 22 21 20 18 15 13 11 13 15 21 19 20 21 20 20 18 17 18 24 23 22 22 23 25 28 32 33 33 37 38
50 51 51 51 45 41 34 33 33 33 24 25 29 27 23 22 19 18 17 15 14 11 10 10 14 21 17 19 20 18 20 19 20 21 18 22 19 22 23 25 27 28 30 32 32
50 50 51 50 45 41 37 35 36 34 19 29 27 33 21 18 23 26 22 17 17 15 10 9 10 10 14 16 19 19 21 19 20 17 17 18 21 20 28 27 27 29 32 34 35
49 50 50 45 45 42 36 35 37 31 20 27 20 11 11 13 16 20 20 23 21 16 16 14 13 10 8 8 16 17 21 20 18 17 15 17 19 18 21 24 28 30 30 30 32
50 49 48 44 40 36 37 35 30 23 21 15 8 17 16 23 21 17 15 18 19 18 19 21 19 12 10 9 8 15 14 16 16 16 15 16 18 20 27 28 26 27 29 37 46
49 48 48 43 42 39 38 33 25 22 18 20 7 17 16 24 26 26 22 13 10 13 8 15 20 23 22 9 8 8 14 15 15 16 15 17 18 20 24 28 30 29 29 49 52
48 45 44 42 39 41 36 26 26 27 30 19 11 13 13 18 29 26 26 25 21 30 27 27 21 25 24 23 12 9 9 15 15 19 15 18 19 21 21 23 30 28 32 48 52
45 43 42 39 42 41 34 28 27 30 30 25 20 15 18 13 21 25 28 28 26 29 28 28 23 22 20 20 24 14 13 16 14 14 16 17 16 19 25 24 26 31 44 49 51
45 41 41 37 41 40 29 29 22 26 28 25 29 24 21 20 23 24 22 23 31 31 29 25 26 22 22 19 21 19 10 13 16 17 16 17 19 25 24 28 30 35 46 48 50
42 37 38 40 34 37 31 26 28 25 26 25 23 24 26 23 24 21 27 32 32 30 26 34 33 28 24 25 24 26 27 14 17 15 18 21 21 31 34 34 28 37 46 48 51
40 39 41 39 32 32 32 25 25 26 31 24 25 25 28 29 27 27 29 30 34 30 31 34 30 26 23 19 25 27 27 15 20 25 16 18 18 22 26 35 41 44 46 48 50
41 35 34 37 34 31 27 27 26 28 25 23 26 26 28 29 28 28 31 27 32 36 38 37 31 28 26 27 31 32 32 32 31 19 19 22 18 21 28 37 43 45 47 48 49
42 33 35 29 32 31 32 32 31 27 28 30 28 27 26 27 26 23 26 27 30 36 37 36 32 30 31 30 31 30 29 30 29 29 19 18 22 25 38 41 44 45 46 46 48
40 38 37 36 33 31 32 32 32 35 34 31 30 30 34 33 30 27 25 26 26 33 35 39 33 33 31 30 30 26 28 29 28 30 28 18 19 34 41 43 45 44 45 46 48
41 43 41 37 33 31 31 31 31 33 34 32 30 33 34 34 35 35 29 28 28 26 25 27 33 32 29 32 31 25 25 26 27 30 30 16 20 40 42 43 47 45 44 45 47

GFSSW_sfc_dewp_024.txt.gz
Dewpoint
49 49 49 50 50 50 52 52 52 52 53 53 53 53 53 53 54 47 39 39 44 55 61 41 53 46 39 43 48 37 30 26 26 27 28 31 34 35 33 32 34 37 35 36 39
50 50 49 50 50 50 52 52 52 52 52 52 52 52 53 53 48 43 44 54 57 60 42 38 30 38 44 45 46 45 36 29 27 28 27 27 28 30 30 32 33 35 39 36 38
51 50 51 51 51 52 52 52 52 52 52 52 52 52 53 52 41 32 55 56 56 58 43 36 32 28 36 44 45 45 41 36 30 32 30 27 28 29 29 29 33 35 35 35 36
51 51 51 51 52 52 52 52 52 52 52 52 52 52 52 48 -5 35 58 58 62 51 45 34 27 25 25 29 40 40 43 44 44 41 35 30 29 28 29 30 34 35 35 36 37
51 52 52 51 51 51 52 52 52 52 52 52 52 51 47 41 40 23 49 40 31 55 39 32 26 22 20 21 22 26 38 37 38 38 37 36 34 32 30 32 34 35 33 32 34
52 51 52 52 52 52 53 53 52 52 52 51 51 49 42 36 35 33 32 29 27 28 37 28 24 23 22 23 21 26 27 33 34 32 32 32 33 33 33 35 33 30 31 31 31
51 52 51 52 52 52 53 52 52 53 52 52 51 47 42 38 39 35 31 28 28 28 23 28 26 25 26 25 25 23 22 22 23 27 31 30 29 30 31 32 30 30 30 32 33
50 52 51 51 51 51 52 52 52 52 52 52 51 47 39 40 40 40 40 37 34 31 26 23 22 26 27 28 28 26 25 21 23 23 25 30 29 31 31 29 29 29 29 31 34
51 52 51 51 50 51 52 52 53 52 52 51 48 46 39 44 39 38 36 31 26 24 23 19 19 20 23 24 25 25 23 21 22 24 25 25 25 30 32 30 31 32 33 33 33
51 51 51 51 51 52 52 52 51 50 48 47 45 43 39 34 33 35 32 31 27 24 22 21 17 16 21 23 21 23 23 23 22 24 24 23 23 25 27 27 27 28 29 31 32
50 51 51 51 52 52 50 45 32 30 30 30 26 30 29 28 28 32 32 25 26 25 18 18 16 14 14 19 22 24 24 23 25 25 24 24 25 25 27 30 30 31 32 31 32
49 49 51 52 52 52 48 41 32 30 27 29 28 30 28 27 25 26 27 22 21 16 20 21 17 15 17 21 22 21 22 23 23 22 25 25 24 25 26 28 29 30 31 31 31
50 50 50 51 51 45 42 36 34 33 28 27 30 32 28 26 25 25 24 22 19 15 15 16 19 20 19 18 20 21 19 21 21 21 19 20 20 24 25 27 27 30 32 34 36
50 50 50 50 43 43 38 38 35 32 25 26 27 24 23 25 23 25 24 22 19 13 13 11 12 11 13 18 17 19 22 21 20 20 18 19 16 19 20 21 23 26 27 29 30
50 50 50 50 44 41 39 39 37 32 14 21 25 26 23 23 23 29 26 21 16 16 13 11 12 11 12 14 20 17 24 21 22 21 19 18 20 16 23 22 23 26 30 32 33
50 50 50 45 44 43 42 37 37 25 15 19 22 15 19 22 22 25 26 31 31 15 14 13 13 10 9 10 10 12 20 21 21 20 16 17 17 16 17 21 25 27 28 29 30
50 49 48 46 40 41 39 36 24 18 23 21 23 21 17 21 21 26 25 26 28 30 26 23 21 18 14 13 13 13 14 14 17 17 16 17 16 16 22 23 23 23 25 27 34
49 49 47 45 45 43 37 30 18 26 28 28 26 25 13 25 22 24 25 24 24 24 18 14 12 22 25 21 10 8 11 16 13 17 16 16 16 19 20 19 19 21 26 46 53
48 43 43 43 43 40 34 24 23 31 26 27 26 19 17 18 26 24 26 27 27 31 26 25 21 24 21 21 20 18 7 10 13 14 17 19 19 22 19 18 18 20 44 51 54
44 42 42 42 39 39 31 27 28 27 26 27 29 26 21 23 22 24 25 29 29 32 31 26 22 23 22 21 21 22 21 12 14 12 12 17 18 17 22 20 22 23 46 52 55
41 39 41 36 42 36 25 28 28 25 27 27 28 25 24 24 24 23 27 29 31 28 30 29 26 22 26 19 17 20 18 14 15 17 13 17 19 22 22 23 27 30 49 52 54
39 35 39 38 31 33 27 29 32 26 28 29 27 26 27 27 26 24 26 29 31 31 29 33 30 28 23 23 24 24 23 25 18 12 17 19 17 20 23 24 28 46 50 52 53
37 38 41 37 26 26 30 30 30 29 31 27 27 28 30 28 26 28 29 29 30 34 32 33 27 23 19 23 29 26 31 32 28 20 15 14 17 17 26 25 39 46 50 52 53
37 34 33 35 33 29 30 33 33 35 32 30 29 29 29 29 29 28 28 27 30 35 37 36 29 27 19 23 28 28 30 30 31 27 17 15 17 17 19 26 45 47 50 51 54
38 32 33 29 33 34 32 31 33 33 36 35 31 29 32 30 29 28 29 29 34 39 38 37 30 30 31 31 31 32 30 29 28 29 28 24 23 21 21 26 45 48 50 51 53
35 36 39 36 36 32 32 31 33 34 32 34 32 32 31 32 32 31 33 31 30 37 36 37 29 33 29 30 30 29 30 28 26 28 28 28 29 29 46 45 46 48 49 51 52
39 40 40 36 34 32 31 34 34 34 35 34 33 32 31 33 35 36 34 34 32 27 29 34 32 30 26 33 29 27 28 27 25 29 30 28 28 30 48 51 49 47 48 50 51

GFSSW_sfc_dewp_027.txt.gz
Dewpoint
49 50 50 51 51 51 52 52 52 52 52 52 52 53 53 53 53 46 36 34 43 53 59 43 53 49 43 38 47 35 29 26 26 27 28 32 33 33 36 35 33 35 39 39 41
50 50 50 51 51 51 51 52 52 52 52 52 52 52 52 52 48 43 40 48 53 58 44 28 26 44 35 35 46 40 30 26 27 26 28 27 29 35 35 34 32 33 38 38 39
49 50 50 51 51 51 51 51 51 52 52 51 52 52 52 51 36 20 57 55 55 56 50 38 29 29 35 45 42 45 41 30 27 27 29 32 30 29 28 28 30 31 36 35 37
50 51 51 51 52 52 52 52 52 52 51 51 51 51 50 47 -19 17 57 53 51 40 48 39 33 27 26 33 43 43 44 43 40 38 41 38 37 35 29 29 31 33 34 36 35
50 51 51 51 51 51 51 52 52 52 52 51 51 50 45 39 36 26 46 40 30 42 47 39 29 27 24 24 27 30 40 42 42 42 43 44 43 41 38 35 35 34 34 36 36
50 50 51 51 51 51 52 52 52 52 52 50 50 49 42 36 37 36 34 32 27 26 26 39 28 26 22 21 24 26 29 29 32 36 36 35 34 34 34 36 35 35 36 34 33
51 51 51 51 51 52 52 52 52 52 52 52 51 46 41 39 40 39 37 36 34 31 26 26 33 25 23 24 24 24 22 24 24 24 28 33 30 31 33 33 33 33 32 32 34
49 51 50 50 50 50 52 53 53 53 53 52 50 45 40 42 41 40 39 38 38 37 31 28 25 24 27 26 26 25 23 19 22 24 25 25 28 31 34 32 32 32 31 31 32
50 51 50 50 50 51 53 53 53 53 52 52 47 44 39 45 40 40 40 35 32 29 29 25 21 20 24 23 24 25 25 23 21 25 26 24 27 30 30 30 31 32 33 34 34
49 50 50 50 51 52 52 52 51 49 49 49 46 39 35 24 27 28 29 29 31 27 23 20 17 18 18 23 21 24 24 26 24 23 24 23 24 26 29 29 29 29 30 30 31
49 49 50 51 51 51 50 43 33 30 31 29 28 28 28 28 30 28 29 27 25 26 20 18 15 14 17 19 22 21 23 25 25 25 23 23 24 24 26 27 26 27 27 28 31
49 49 49 51 51 51 45 39 36 32 29 30 30 29 29 31 29 29 29 24 23 19 19 18 15 18 18 19 18 18 19 21 24 25 24 25 25 26 27 27 28 30 31 32 32
49 49 50 50 51 44 41 40 37 34 28 28 27 31 23 27 27 26 25 24 23 20 18 18 18 18 17 18 18 19 20 20 22 24 23 22 20 20 24 28 28 29 30 32 33
50 50 50 50 42 43 40 39 40 33 24 24 24 25 24 24 24 27 26 24 21 17 16 14 14 13 13 15 16 14 21 22 23 22 18 20 16 17 17 18 24 24 25 28 31
49 49 50 49 43 42 38 42 39 30 8 21 24 24 26 21 22 27 35 30 24 20 16 13 13 12 9 11 13 18 20 22 21 21 20 21 19 14 18 17 18 20 23 26 28
50 49 49 44 43 44 44 41 33 21 10 23 23 27 26 24 21 25 27 30 32 29 19 16 15 13 11 11 13 16 20 19 20 20 18 18 19 16 15 17 20 25 26 27 29
50 49 48 46 36 41 40 34 22 17 26 24 25 27 26 20 20 24 24 27 29 26 25 22 16 14 13 11 14 14 12 15 16 18 17 19 18 17 22 23 22 23 24 26 27
49 49 46 46 45 42 34 27 16 26 26 27 26 27 18 21 22 24 24 26 29 29 25 24 19 18 25 17 17 11 11 14 12 15 15 17 17 18 21 22 20 20 21 26 35
48 42 42 43 45 39 29 23 22 28 27 24 26 24 21 22 25 24 23 27 29 32 26 25 20 25 22 22 21 20 8 10 7 15 13 18 20 22 21 17 21 21 21 30 45
41 41 41 42 41 36 29 26 27 30 26 26 27 27 23 22 24 23 25 29 28 31 31 26 21 24 22 22 21 19 20 9 11 10 11 16 17 18 22 18 24 23 24 38 54
40 37 40 39 39 34 25 27 28 28 27 29 29 27 24 25 24 24 26 27 30 29 30 28 25 23 24 20 14 19 21 18 11 14 14 14 18 23 21 21 22 23 26 49 55
37 31 40 37 31 30 26 29 34 29 32 31 31 29 26 27 26 25 26 29 29 32 29 33 29 27 24 23 23 23 22 23 16 11 16 17 15 18 20 20 23 35 40 54 56
37 37 41 35 24 25 29 30 32 32 33 33 32 30 30 28 26 28 28 29 28 32 32 33 27 22 18 26 29 25 27 26 30 26 22 13 14 18 20 22 33 43 51 54 56
39 32 32 33 33 28 31 31 32 34 34 34 33 32 31 29 29 28 28 29 32 33 36 35 28 24 19 21 27 27 27 31 30 26 22 18 17 16 19 29 27 49 52 52 56
36 32 33 29 31 33 34 31 31 30 36 35 34 32 32 32 30 29 30 31 33 36 37 34 28 29 28 28 30 29 29 30 29 29 27 26 26 21 29 28 29 47 51 54 56
34 33 36 33 35 31 31 30 31 32 33 33 35 35 33 31 31 30 32 33 32 35 34 37 28 31 27 28 26 32 30 30 29 28 28 28 27 28 29 44 47 47 51 54 54
37 37 38 32 31 30 31 31 32 35 35 36 36 35 33 33 34 35 36 37 36 33 33 33 30 27 22 23 28 26 28 29 29 27 27 26 27 28 33 38 49 49 52 53 54

GFSSW_sfc_dewp_030.txt.gz
Dewpoint
49 49 50 51 51 51 51 51 51 51 52 52 52 52 52 52 52 46 33 29 44 54 56 39 53 52 43 44 44 34 29 26 26 27 26 30 32 33 36 36 35 37 37 39 42
50 50 50 51 51 51 51 51 51 51 51 51 52 52 52 51 47 43 39 44 48 53 46 35 34 44 36 33 46 35 29 25 26 27 28 28 29 29 30 30 32 37 37 37 38
49 50 50 51 51 51 51 51 51 52 51 51 51 51 51 50 34 11 54 51 50 50 46 41 38 33 37 40 38 44 35 24 23 25 28 28 29 33 34 31 30 31 34 34 35
50 50 51 51 51 51 51 51 51 52 51 51 51 50 50 45 -12 16 53 47 46 42 44 42 37 29 28 38 42 42 44 39 35 34 34 31 37 37 37 34 35 33 34 35 35
50 51 50 50 51 51 51 52 52 52 52 51 51 50 44 38 32 35 45 41 30 26 42 44 33 30 25 28 35 42 40 44 44 43 42 44 44 44 42 43 40 38 38 37 36
49 49 50 50 50 51 52 52 53 52 52 51 51 50 42 34 37 38 37 38 30 28 24 39 35 30 24 23 28 27 33 36 38 38 38 38 38 37 38 40 39 38 37 37 37
49 49 50 50 50 51 52 53 53 53 53 51 51 47 40 37 40 40 40 39 36 37 27 25 39 36 25 23 23 24 22 24 26 29 31 35 33 33 36 37 36 35 34 35 36
49 49 50 50 50 51 52 53 53 54 53 52 50 44 39 41 42 42 40 38 38 39 36 29 25 26 27 25 25 25 21 20 23 24 25 30 27 30 34 34 34 34 34 34 34
49 50 49 50 50 51 52 53 53 52 52 52 46 42 37 42 41 41 38 35 30 33 35 31 26 21 25 23 23 25 19 21 21 24 25 25 26 31 32 31 32 32 33 34 34
49 50 50 50 51 51 52 52 51 50 50 49 47 38 33 26 28 30 35 33 31 26 26 25 20 18 20 22 18 20 24 24 23 24 24 24 25 27 30 30 30 31 32 33 34
49 49 50 51 51 51 49 38 35 32 32 30 29 29 28 29 31 30 31 29 25 25 22 20 15 14 18 21 23 20 21 24 25 26 24 24 24 25 26 27 26 27 28 29 30
49 49 49 50 50 51 43 36 35 35 30 32 31 30 30 30 30 27 31 25 23 20 22 18 15 17 19 19 20 19 19 19 23 24 24 24 23 25 26 27 27 28 28 30 31
49 48 49 49 50 44 41 39 39 35 30 29 28 28 29 26 25 26 26 25 22 19 18 17 17 19 17 16 17 19 18 19 21 23 22 23 22 23 24 24 24 25 28 29 31
50 48 48 49 41 42 39 40 41 35 24 22 22 24 28 27 23 27 28 24 23 18 18 17 17 14 15 16 16 15 21 22 24 22 19 22 18 20 21 22 22 24 25 28 32
48 49 48 48 42 40 37 42 40 29 3 20 23 28 28 25 25 25 33 28 23 22 21 16 12 11 11 11 15 16 18 18 19 19 20 20 19 16 18 17 19 20 20 21 25
49 49 48 44 44 43 43 39 32 20 7 25 26 26 26 27 22 24 25 30 31 31 32 23 18 13 12 12 13 15 19 20 21 21 17 17 18 15 14 14 18 20 22 23 24
50 49 46 45 35 42 40 31 21 14 24 23 24 25 25 24 22 24 23 26 29 29 28 27 20 18 15 13 15 13 16 15 16 17 13 17 17 14 19 22 23 22 24 27 29
49 46 47 46 43 42 31 23 13 24 25 28 25 24 23 21 23 24 23 27 30 32 28 27 18 21 22 14 12 12 11 15 13 14 10 18 17 17 21 21 22 24 23 24 25
47 42 41 42 45 38 28 21 20 25 28 25 26 25 22 22 24 24 22 25 28 33 27 27 25 29 31 28 21 16 10 12 7 13 11 17 19 21 19 20 22 21 23 24 25
40 40 40 42 40 33 29 26 26 30 28 27 26 27 23 22 23 24 23 28 28 31 32 27 21 26 28 30 24 18 17 8 9 6 10 14 15 16 19 24 23 23 24 26 36
38 36 39 39 38 33 24 26 28 30 30 30 29 31 27 25 24 24 24 27 30 29 31 29 26 21 24 20 14 19 19 19 11 14 13 13 16 22 18 19 21 25 31 43 48
37 31 39 36 29 27 24 28 34 30 34 33 31 31 29 28 26 25 26 28 29 32 29 32 29 26 23 24 26 23 22 22 16 13 12 15 13 19 21 24 26 29 50 53 55
38 37 41 34 22 23 29 31 31 32 32 34 33 33 33 30 29 28 28 31 29 30 31 31 26 21 18 26 28 26 28 24 27 27 20 13 11 19 19 26 27 29 51 54 56
39 30 33 33 32 28 32 27 32 33 34 35 33 34 34 32 32 31 29 30 31 32 35 35 27 23 17 20 27 26 28 28 29 26 19 16 19 18 19 28 26 33 48 54 56
35 31 34 27 28 29 34 31 29 33 35 36 34 34 34 30 31 29 30 30 32 33 35 31 28 28 28 28 28 28 29 29 27 28 28 26 27 26 28 28 26 38 45 55 56
26 31 34 30 31 30 30 28 29 31 32 31 32 32 35 33 31 31 33 35 34 35 34 34 28 28 25 27 28 28 26 28 29 29 28 29 28 28 28 29 32 40 49 55 56
38 35 34 30 29 26 27 31 30 32 35 35 35 35 33 33 34 35 36 35 36 35 34 33 31 27 22 24 25 21 21 24 24 29 28 28 26 27 30 33 37 46 50 54 56

GFSSW_sfc_dewp_033.txt.gz
Dewpoint
50 49 50 51 50 51 51 52 52 52 52 52 52 52 51 52 52 44 31 27 44 54 55 34 31 43 48 47 41 34 26 21 18 21 18 29 28 33 33 35 34 34 36 38 47
49 50 50 51 51 51 51 51 51 52 52 52 52 51 51 51 45 39 41 49 49 52 41 32 17 40 43 40 44 33 29 25 23 21 23 19 27 29 30 32 32 34 36 38 37
50 50 50 50 51 51 51 51 51 51 52 51 51 51 51 49 34 10 54 48 50 44 40 38 36 33 37 32 41 40 32 29 25 22 25 23 25 27 30 30 32 32 34 35 36
50 50 50 50 51 51 51 52 52 52 52 51 51 51 50 42 -5 32 47 48 47 34 42 44 37 24 25 33 34 33 37 36 31 26 25 22 21 23 24 28 33 36 41 39 39
49 49 50 50 51 51 51 52 53 52 52 51 51 51 44 34 27 29 46 44 37 33 25 38 32 26 20 22 30 35 31 36 37 37 32 33 33 32 35 37 41 43 43 43 42
49 50 50 50 50 51 52 53 53 53 53 51 51 50 41 24 31 37 39 40 36 33 30 30 37 28 30 25 25 26 31 33 35 41 42 40 39 40 39 40 40 40 40 39 39
49 50 50 50 50 51 52 53 53 53 54 51 51 47 41 30 37 39 41 39 38 35 31 29 23 35 29 24 25 24 25 26 32 35 37 40 37 37 39 40 39 39 39 39 39
49 49 50 50 50 51 52 53 53 54 53 52 51 45 37 40 42 42 41 37 38 38 35 33 27 24 34 31 24 23 23 20 24 26 29 33 29 30 31 32 34 35 37 38 39
49 50 49 50 50 51 52 52 53 52 53 51 46 43 27 40 32 30 40 32 30 32 36 30 28 20 25 27 23 22 18 19 20 24 25 27 27 29 30 31 34 36 37 37 37
49 50 49 50 50 51 52 52 52 53 51 48 46 36 31 24 27 29 31 36 30 28 26 25 24 20 20 24 18 17 19 19 19 22 24 24 27 28 30 32 33 35 35 36 36
49 49 49 49 50 51 49 37 34 32 35 31 30 30 28 29 29 28 30 28 27 25 22 21 17 14 16 23 24 21 21 20 22 24 23 24 25 26 28 29 30 31 33 34 36
49 49 49 49 50 50 44 36 37 38 33 33 32 31 31 30 27 24 28 24 23 20 22 20 15 16 18 18 21 22 21 21 22 24 25 26 26 27 28 29 30 31 32 33 34
48 48 48 49 50 44 41 37 39 36 32 31 29 26 26 28 24 22 26 25 22 19 19 19 17 16 18 17 18 20 21 21 21 23 24 24 24 26 27 28 29 29 31 32 34
48 48 48 48 43 43 38 41 42 37 28 19 23 25 26 28 25 22 27 26 23 19 17 17 18 16 15 14 17 18 19 21 22 22 20 23 17 23 25 26 28 28 30 31 32
48 48 48 47 45 39 39 42 39 33 9 19 23 27 26 25 24 19 26 27 25 24 25 21 17 13 13 12 14 17 19 18 18 18 20 20 19 20 21 21 23 27 28 30 31
49 49 48 46 46 43 43 40 34 21 9 20 25 24 24 23 20 22 24 25 28 27 28 26 25 21 17 14 13 13 16 18 19 18 15 18 18 16 15 19 20 22 22 25 27
50 49 46 43 36 43 40 33 23 14 22 21 23 24 24 23 20 22 22 22 27 28 26 26 26 25 23 15 15 14 15 11 12 14 14 15 16 18 20 21 21 23 24 27 31
49 45 48 46 46 45 32 22 16 21 22 25 25 24 23 21 21 22 22 20 28 32 33 29 24 21 23 19 13 14 15 10 4 6 9 14 15 15 22 22 26 24 28 31 33
46 44 43 43 45 40 30 25 20 24 26 26 26 24 22 21 24 23 22 23 26 31 28 29 21 26 28 26 18 14 13 15 13 14 8 10 14 16 18 19 21 23 30 36 39
43 42 40 41 42 37 30 26 25 27 28 28 26 27 23 23 24 23 23 24 24 27 31 28 26 25 28 27 26 23 17 12 11 6 5 9 11 10 18 16 23 28 35 41 52
42 37 40 40 40 34 32 27 28 29 30 29 29 27 28 28 24 24 22 21 27 26 28 29 27 21 23 24 29 25 24 17 15 12 9 9 12 24 24 25 26 26 36 48 54
41 32 40 38 31 34 30 30 33 30 32 32 33 31 29 29 27 25 25 25 27 29 26 31 31 24 19 22 25 24 22 24 18 12 11 11 12 23 28 26 29 26 29 43 56
37 37 41 36 33 31 30 30 30 31 31 31 32 32 32 31 31 30 28 27 28 28 28 32 28 20 15 25 27 23 23 26 28 25 19 12 11 23 23 23 29 28 26 34 55
37 32 33 35 33 30 28 28 25 31 32 34 33 34 34 31 33 32 29 29 29 30 35 35 29 23 20 19 25 23 24 25 26 23 19 17 18 19 22 26 29 28 32 36 54
35 32 36 28 27 27 30 30 28 28 35 33 33 33 36 32 30 30 29 29 31 33 34 33 28 26 27 27 26 25 24 24 23 23 23 21 20 22 27 31 28 31 32 32 49
32 32 34 31 31 32 30 28 28 30 30 28 31 32 34 32 32 31 30 33 35 37 36 37 31 29 25 24 23 21 21 22 23 24 24 25 24 28 31 31 28 28 27 32 45
38 37 36 31 31 30 29 27 27 29 29 34 33 34 32 32 34 35 36 36 36 36 35 35 33 29 22 21 22 20 20 22 21 23 24 21 23 25 29 30 31 36 40 40 46

GFSSW_sfc_dewp_036.txt.gz
Dewpoint
49 50 51 51 51 51 51 51 52 52 52 52 52 52 52 52 52 34 24 32 39 55 54 28 18 40 43 43 38 36 30 25 19 17 15 18 16 17 28 32 34 35 37 41 49
50 50 51 51 51 51 51 52 52 52 52 52 52 52 52 52 41 33 45 48 50 52 32 24 14 29 35 36 39 35 30 28 24 21 18 15 18 19 28 32 34 35 38 38 47
50 50 51 51 51 51 52 52 52 53 53 53 52 52 52 49 30 28 53 52 50 47 30 31 28 15 31 35 34 36 31 30 29 27 22 19 17 17 22 29 34 34 35 35 37
50 50 51 51 51 51 52 52 53 53 53 53 53 52 52 40 6 26 46 48 50 37 27 35 32 20 22 28 32 32 35 34 31 30 26 23 22 20 19 21 31 33 35 37 39
50 50 50 50 51 51 52 52 53 53 53 53 53 52 45 26 15 25 45 44 34 29 23 18 30 25 16 19 26 30 30 32 34 34 33 29 26 25 24 24 23 25 28 37 39
50 50 50 50 51 51 52 53 53 53 53 54 52 51 38 16 26 32 35 35 33 29 24 21 23 26 25 21 19 23 27 29 30 31 34 33 33 33 32 33 34 38 39 37 36
50 50 50 50 50 51 52 53 53 53 54 55 52 46 37 22 31 33 34 34 33 31 28 26 20 25 26 24 23 22 22 23 26 29 31 35 35 34 35 36 37 38 39 38 38
50 50 50 50 50 51 52 53 53 53 54 54 52 44 30 31 34 31 30 29 32 33 32 30 24 18 18 26 25 21 21 19 21 25 28 31 31 33 33 34 36 37 36 37 38
49 51 49 50 50 51 52 52 53 53 53 52 47 40 19 36 21 25 26 29 28 28 32 30 25 19 11 16 19 21 15 15 17 20 23 28 31 33 33 32 32 34 33 34 35
49 49 49 49 50 50 51 52 53 53 48 45 42 35 22 19 23 25 26 30 29 27 27 28 23 17 12 7 8 11 14 14 15 16 20 22 26 28 29 29 31 32 33 33 35
48 49 48 49 50 51 49 40 35 32 29 27 27 27 21 24 25 21 24 26 26 26 22 21 17 12 12 12 10 13 16 16 18 18 19 22 23 25 27 29 30 32 34 35 36
49 48 48 49 50 50 46 31 35 36 30 28 30 29 29 27 24 19 25 22 22 20 19 18 17 17 14 12 14 14 17 19 21 23 22 22 23 25 26 27 29 31 32 33 34
50 48 48 49 50 46 37 35 39 38 30 25 25 24 23 22 21 21 18 19 20 19 16 16 14 15 15 14 14 15 15 18 19 21 25 25 25 26 26 28 29 30 32 33 34
50 49 49 49 46 39 35 39 39 40 26 18 20 23 21 22 20 20 19 22 20 18 19 17 14 14 16 16 13 13 13 14 17 20 18 25 19 24 25 25 27 28 30 31 32
50 49 49 48 43 36 39 41 40 38 14 16 19 23 22 20 20 16 21 22 19 19 20 18 17 18 16 15 13 13 14 14 18 19 20 19 17 20 23 23 25 28 29 30 31
50 49 48 45 44 41 42 42 38 25 8 15 19 19 19 19 18 17 19 21 21 24 25 21 23 24 22 18 15 16 15 14 19 22 18 19 18 17 19 21 22 24 24 26 26
50 48 46 41 38 42 41 35 25 17 18 16 18 21 21 18 18 19 19 17 16 24 19 21 22 23 25 20 18 15 14 10 10 14 16 18 16 19 23 19 19 22 23 26 28
49 46 46 43 44 44 39 26 22 16 16 22 23 23 19 20 20 21 19 13 19 26 25 26 19 29 24 21 17 17 15 8 7 8 8 14 15 15 20 22 22 22 26 28 31
48 46 44 43 45 42 32 20 19 21 23 24 24 20 17 18 21 21 19 17 19 25 27 26 23 25 26 29 22 20 20 17 12 11 12 6 15 19 20 20 23 23 31 36 42
42 43 40 42 45 40 27 23 21 24 26 26 25 23 22 20 21 19 19 19 19 21 26 26 25 21 29 29 24 23 20 27 14 14 8 6 10 12 18 18 18 23 32 37 49
42 37 39 41 42 32 30 18 23 26 27 27 26 25 26 23 23 21 20 20 21 22 23 24 26 22 19 20 20 24 26 28 26 12 5 5 7 17 19 23 26 27 30 32 47
39 29 40 39 29 34 25 21 30 27 30 29 30 29 27 27 26 23 23 25 24 25 23 25 29 21 18 18 21 28 31 32 31 19 12 16 16 26 29 27 30 29 29 31 48
36 33 40 38 34 25 19 21 27 28 29 28 29 29 30 28 29 26 26 26 26 28 27 30 25 19 14 23 25 21 20 24 26 29 28 10 15 27 24 24 28 30 29 30 40
34 30 31 32 32 26 25 23 24 26 28 30 31 29 29 29 30 30 28 27 29 28 34 35 30 24 21 18 19 19 20 21 22 21 18 16 17 21 24 23 26 32 30 28 31
33 31 34 28 33 31 30 26 24 25 30 30 29 29 32 32 29 28 26 28 33 35 34 35 31 26 23 21 21 20 19 19 19 19 17 17 19 19 22 25 28 32 28 26 29
35 35 34 32 32 32 30 25 23 24 26 25 28 29 30 31 30 31 30 32 35 35 34 37 33 30 26 23 21 19 18 15 16 18 20 19 18 20 23 23 25 26 26 26 31
39 38 37 32 29 29 30 28 30 30 29 27 30 30 30 31 32 33 33 34 36 36 34 36 33 30 25 23 22 19 17 15 15 16 18 16 18 20 21 23 25 26 28 30 32

GFSSW_sfc_dewp_042.txt.gz
Dewpoint
51 51 51 52 52 52 52 53 53 54 54 55 55 55 55 55 54 42 39 39 44 58 53 26 22 24 24 28 35 33 33 31 29 27 25 23 18 16 15 15 19 24 30 41 43
51 51 51 51 52 52 52 52 53 54 54 55 55 55 55 55 47 40 49 52 55 55 33 22 19 19 20 23 32 32 31 32 31 28 26 24 21 17 16 16 20 22 33 40 43
50 51 51 51 52 52 52 52 53 54 54 55 55 55 55 53 44 33 55 57 57 51 35 29 20 22 19 19 24 31 31 32 32 31 29 27 25 22 18 17 17 23 33 38 43
51 51 51 51 51 52 52 52 53 53 54 54 55 55 56 48 23 35 55 55 57 44 32 21 18 19 19 20 17 23 27 31 32 32 31 30 30 27 25 21 21 23 32 37 39
51 51 51 51 51 52 52 52 53 53 54 54 55 55 49 42 26 35 55 50 42 33 24 19 16 17 20 17 19 16 19 24 25 26 28 31 31 30 28 27 27 25 24 37 40
50 50 50 51 51 51 52 52 53 53 53 54 55 55 46 35 23 24 27 27 25 23 22 21 19 17 12 13 17 17 17 16 19 23 25 26 28 31 32 32 31 29 29 37 41
51 50 50 50 51 51 52 53 53 53 53 54 55 49 40 33 21 21 21 18 19 24 24 22 22 22 19 15 15 19 18 19 18 16 20 24 25 27 32 34 34 33 30 30 43
52 52 51 50 50 51 52 53 53 53 54 55 55 44 38 22 19 18 17 16 18 17 18 21 25 23 22 20 16 11 14 15 16 17 17 18 21 24 27 32 34 35 35 34 34
52 52 51 51 51 51 52 52 52 54 54 53 47 43 31 34 21 18 17 17 19 20 22 19 21 21 20 16 12 11 6 6 8 14 14 16 19 23 26 28 32 35 36 37 36
52 51 50 50 50 51 52 52 52 52 50 44 41 33 30 19 18 19 18 18 18 20 21 21 21 21 19 14 7 6 3 2 3 4 7 12 16 20 23 23 28 32 35 36 39
51 51 52 51 50 51 49 43 41 43 43 31 23 23 21 16 19 16 18 18 17 20 17 16 14 14 16 18 14 13 10 9 9 7 8 11 15 17 20 22 24 29 33 35 36
51 51 52 52 51 52 48 39 30 30 28 25 21 22 20 18 18 17 18 17 16 13 14 13 12 13 12 12 14 15 14 12 12 11 13 15 14 18 21 21 25 30 31 33 37
51 51 52 51 51 47 41 32 32 32 28 23 22 19 18 18 17 18 18 17 14 13 14 13 12 12 11 12 11 13 14 14 11 12 12 14 16 20 19 24 26 28 30 33 35
50 51 51 51 47 34 34 34 32 35 26 23 17 17 17 16 18 18 17 15 14 14 14 14 12 8 10 11 10 9 9 9 12 13 9 13 10 20 20 23 26 27 29 31 34
51 51 51 50 43 35 33 34 34 35 26 18 15 20 15 16 17 18 18 16 16 15 14 12 12 12 14 11 12 13 14 14 13 12 13 11 10 13 17 19 23 29 29 31 34
50 51 51 47 44 36 32 35 38 32 23 14 14 14 15 16 16 17 17 18 17 16 14 13 15 16 20 22 24 24 22 19 16 15 10 10 10 11 13 17 19 25 28 29 30
50 50 49 44 37 35 35 35 29 26 17 13 14 15 16 17 16 15 14 14 13 13 11 11 15 21 28 25 21 26 22 19 12 12 9 11 10 14 18 15 17 21 25 27 31
48 49 48 37 39 39 35 33 28 21 19 16 15 16 17 15 13 14 12 12 12 10 11 16 14 21 26 23 21 23 33 27 12 8 5 9 10 13 19 21 23 24 28 29 33
47 45 45 44 42 39 33 30 26 20 19 17 17 19 17 14 14 14 14 14 13 14 16 16 16 15 14 17 23 22 15 30 26 22 21 10 9 10 16 19 20 24 27 31 32
44 44 40 43 42 39 32 32 26 19 17 17 19 21 19 17 16 17 18 18 17 22 19 19 19 17 14 17 30 27 20 22 29 23 12 12 9 8 14 19 19 23 28 30 34
44 37 41 40 38 35 34 27 22 19 17 20 23 23 21 21 22 19 18 19 22 22 25 23 21 22 26 18 15 20 21 24 29 26 17 14 12 22 34 37 37 30 28 34 33
41 32 40 36 28 37 30 23 29 19 23 23 25 25 24 24 22 21 20 22 25 24 26 28 30 24 19 18 16 17 18 29 17 21 22 19 19 32 36 38 37 38 38 33 36
37 33 39 35 36 30 27 25 24 20 22 21 24 27 29 25 26 26 28 27 25 30 33 37 28 25 19 16 27 28 29 25 28 32 26 23 21 28 39 39 39 43 39 34 34
37 31 32 29 31 31 28 27 27 27 21 25 26 26 26 27 26 27 27 26 31 34 38 38 34 29 23 20 31 32 29 27 26 27 24 23 25 29 36 37 39 41 44 30 32
36 31 34 25 27 31 30 28 29 28 25 25 26 25 26 29 26 25 26 26 28 34 37 39 32 29 26 23 21 24 27 23 21 19 18 13 14 22 34 35 36 37 39 27 28
33 35 35 30 32 31 30 27 27 29 30 29 27 29 29 27 27 27 27 30 33 32 37 39 35 31 27 23 20 18 15 15 13 10 10 10 11 16 22 31 32 33 25 25 26
39 39 37 34 30 27 27 26 27 28 30 30 30 30 29 29 31 29 31 33 34 35 37 37 35 31 26 22 28 23 17 21 17 14 11 6 16 21 16 19 26 25 26 25 26

GFSSW_sfc_dewp_045.txt.gz
Dewpoint
51 51 52 52 52 52 52 53 53 54 54 55 55 56 56 56 55 45 40 44 46 56 56 30 23 22 24 26 27 34 30 36 36 34 32 32 27 26 24 19 18 20 27 43 48
51 51 51 52 52 52 52 52 53 53 54 55 55 55 56 56 50 45 50 56 58 55 33 27 26 20 19 22 23 32 31 30 34 34 32 30 27 26 25 21 20 22 29 45 46
51 51 51 52 52 52 52 52 53 53 54 54 55 55 55 55 46 36 56 59 56 51 38 33 30 20 20 20 20 27 29 30 31 32 33 32 32 31 30 26 21 21 25 39 45
51 51 51 51 52 52 52 52 53 53 54 54 54 55 56 52 33 39 56 60 58 48 40 32 24 17 18 19 20 18 22 30 30 30 30 30 32 31 31 32 27 27 30 33 38
51 51 51 51 51 51 52 52 52 53 53 54 54 55 52 46 41 34 58 58 49 42 40 35 19 16 15 19 18 16 18 19 23 29 29 30 29 28 29 32 33 30 32 32 31
52 52 52 51 51 51 51 52 53 53 53 54 54 55 50 41 24 34 49 39 39 30 24 22 21 21 19 15 12 13 14 16 18 17 17 23 25 26 28 31 32 32 34 33 32
52 52 51 51 52 51 52 52 53 53 53 54 54 51 42 37 24 22 23 16 17 21 23 24 23 23 22 21 20 17 14 15 17 18 18 19 17 21 26 29 29 33 34 34 34
52 51 51 51 51 51 52 53 52 52 53 55 54 48 39 36 22 19 17 16 18 19 20 19 22 24 23 22 20 16 14 11 14 18 18 18 16 18 21 25 28 31 32 33 37
51 51 51 51 51 51 52 52 52 52 54 55 49 45 35 38 22 21 19 19 18 19 21 20 22 20 21 19 16 15 11 9 9 10 12 15 15 18 20 22 26 27 31 34 34
50 51 50 51 51 52 52 52 52 52 48 45 42 38 38 27 20 23 19 21 19 19 22 22 21 20 21 20 15 10 8 7 7 7 6 4 6 13 18 19 23 24 27 33 34
51 51 51 50 52 52 50 44 42 42 43 40 39 35 24 19 21 19 23 23 20 19 16 16 14 13 14 15 16 13 14 15 16 15 13 12 12 13 14 15 18 21 21 25 32
51 52 52 52 52 52 48 42 30 29 28 29 27 23 21 21 17 19 23 20 19 16 16 15 13 14 12 12 12 13 12 12 15 17 14 14 13 14 14 16 18 22 23 23 34
51 51 51 52 52 49 42 40 31 33 29 26 25 21 21 19 19 18 21 19 16 13 14 14 14 14 11 9 9 10 11 11 11 14 14 14 13 13 14 16 17 20 27 30 30
51 50 51 51 48 41 39 34 32 34 27 25 19 17 17 17 18 18 20 17 17 14 15 14 14 12 11 11 12 9 15 15 17 14 9 16 11 13 13 13 17 17 23 27 28
50 50 50 50 46 39 32 33 36 36 27 21 16 22 16 16 18 19 18 18 16 16 15 14 14 12 12 19 23 21 23 22 22 20 17 14 12 11 16 13 13 16 15 20 28
49 50 50 48 46 42 38 35 38 34 27 14 16 15 15 16 17 19 19 20 18 16 16 14 13 20 23 25 27 29 25 23 23 19 17 16 14 13 12 11 13 15 18 17 19
49 48 48 44 42 41 37 37 31 30 20 14 14 15 15 16 17 18 19 15 14 15 11 12 12 15 28 27 28 24 27 25 19 15 14 15 15 13 13 14 17 19 19 19 18
48 48 48 41 39 40 39 34 29 26 19 19 16 16 17 17 14 16 16 14 17 14 15 18 16 16 28 27 21 21 29 24 18 19 23 23 16 13 18 14 29 28 24 24 24
47 46 46 47 45 42 37 30 32 25 17 16 16 17 18 19 18 19 18 18 18 23 22 21 20 20 18 17 18 18 27 31 30 28 25 20 18 21 29 36 36 35 36 36 40
45 45 44 45 44 41 34 32 29 19 17 16 18 21 22 21 20 20 19 21 22 25 26 25 22 22 20 24 24 23 26 26 30 22 16 16 15 21 32 34 34 34 35 40 43
45 43 43 42 41 38 34 31 26 21 22 22 23 23 23 23 22 20 20 21 26 26 28 29 27 25 25 22 20 20 30 33 32 27 19 17 20 36 35 34 34 35 34 39 44
43 36 42 39 31 39 34 28 31 23 23 23 25 26 28 28 24 22 22 27 28 31 30 35 31 25 24 25 24 23 28 31 28 27 28 25 22 36 35 34 36 35 37 40 42
41 38 43 41 35 31 30 26 26 26 24 20 23 28 29 27 26 28 28 29 29 32 35 37 31 26 21 21 32 30 28 28 29 30 25 23 23 30 37 36 35 38 39 43 42
42 34 38 37 32 32 30 28 26 29 28 28 27 27 27 27 28 29 26 27 28 31 39 38 34 29 24 24 28 28 28 27 27 25 24 24 24 28 35 35 36 38 41 41 38
40 36 37 31 30 31 32 30 27 26 30 31 30 26 29 29 27 25 26 27 29 33 39 39 33 32 32 31 29 25 24 23 24 25 24 21 20 21 35 36 36 37 39 39 35
36 34 35 32 34 32 32 30 26 25 28 27 29 30 30 28 28 26 27 29 30 31 33 40 33 35 31 30 28 24 25 26 24 21 27 25 25 29 33 33 33 33 29 27 30
41 40 36 34 33 29 28 30 29 29 29 30 29 29 29 30 30 30 30 30 30 32 36 33 34 30 25 27 27 21 25 29 29 31 31 28 31 31 32 30 29 29 29 25 22

GFSSW_sfc_dewp_048.txt.gz
Dewpoint
51 52 52 52 52 52 52 52 53 53 54 54 55 55 55 55 55 49 43 44 48 55 56 38 28 23 24 27 27 33 30 34 39 39 37 36 34 34 31 28 29 22 26 44 49
51 51 51 51 52 52 52 52 53 53 53 54 55 55 55 56 52 48 48 57 58 56 34 30 29 28 19 22 23 29 31 30 33 38 37 35 33 33 33 33 32 32 28 35 49
51 51 51 51 51 51 52 52 52 53 53 53 54 55 55 55 47 39 56 59 59 55 39 35 32 28 18 19 21 25 23 29 30 32 33 32 32 32 31 31 32 32 28 29 37
52 52 52 52 52 52 52 52 52 53 53 53 54 54 56 52 29 37 57 60 60 47 41 37 31 22 17 18 20 18 19 22 27 29 29 28 28 27 28 30 33 33 33 31 34
52 52 52 52 52 52 52 52 52 52 53 53 54 54 52 46 44 38 59 59 55 45 41 37 32 18 15 18 17 17 17 17 19 20 29 30 29 28 28 30 31 31 32 34 35
51 51 51 51 51 51 52 52 52 52 53 53 54 55 50 38 40 32 51 50 46 39 32 34 22 22 21 21 20 16 17 17 16 16 19 19 20 23 26 29 28 30 30 34 33
52 51 51 50 51 52 53 52 53 52 53 53 55 52 45 34 34 32 45 35 22 32 25 24 25 22 23 21 22 20 16 16 15 18 17 19 17 18 21 23 25 30 29 31 35
52 52 51 50 51 51 52 53 52 52 52 53 54 49 38 40 39 30 19 16 18 18 21 20 21 23 22 23 21 18 16 11 13 13 16 19 15 17 20 20 21 25 28 28 36
52 52 51 51 51 51 51 52 52 52 53 54 49 45 39 43 23 21 18 20 19 19 20 19 22 21 22 19 18 16 13 11 11 11 11 16 14 18 20 20 19 19 27 27 27
53 52 52 51 51 51 51 52 51 52 49 47 43 40 39 32 21 23 23 23 22 20 21 25 21 19 20 20 17 15 11 11 12 10 14 12 12 14 16 17 17 20 21 26 27
52 52 52 52 51 51 49 44 31 35 42 39 41 39 37 26 23 21 25 23 22 19 16 18 13 14 17 20 20 20 17 14 14 16 16 15 15 15 16 17 17 19 19 22 25
52 52 51 52 52 52 48 40 35 29 28 32 33 34 32 26 19 20 27 19 22 16 16 16 13 16 16 14 13 11 11 11 13 15 13 14 14 15 16 16 16 17 20 22 24
51 50 51 51 51 48 42 41 40 32 27 27 28 28 27 22 19 20 21 19 16 16 15 14 15 16 14 13 13 13 12 20 20 23 21 15 13 12 15 17 17 17 20 23 27
50 50 50 50 45 42 39 37 35 32 27 29 19 19 17 17 19 20 21 17 16 14 15 15 15 14 13 13 23 20 27 25 23 22 19 21 15 16 14 15 16 15 16 20 24
49 50 50 50 44 37 37 40 36 36 25 25 18 19 17 14 20 21 21 19 16 15 16 15 16 15 14 23 24 21 29 25 25 22 21 20 16 16 16 15 15 16 15 18 19
49 50 49 47 46 42 42 37 37 33 24 16 17 16 16 17 17 20 19 22 20 17 17 16 16 22 23 26 26 29 24 25 27 23 19 18 17 14 15 15 15 22 30 29 32
49 49 49 46 36 40 39 37 29 27 22 17 16 17 16 16 18 19 19 16 14 14 12 14 13 21 28 24 26 25 21 19 19 15 16 19 20 17 18 28 35 35 35 35 37
49 49 48 45 40 42 38 33 27 25 17 18 17 16 18 21 20 22 19 18 22 19 16 17 17 17 29 24 20 20 22 20 16 17 20 24 19 20 34 35 35 34 34 33 37
48 44 46 44 45 41 34 28 30 21 19 16 17 17 22 23 22 23 21 20 25 26 23 22 22 24 22 22 24 22 24 27 23 29 27 23 21 21 32 32 32 31 32 33 33
43 44 44 45 42 38 33 32 30 26 22 22 21 23 22 23 22 22 22 25 26 28 27 26 23 23 25 25 23 22 24 21 25 20 19 19 18 18 31 31 32 30 31 33 34
43 40 42 39 40 38 31 32 28 26 24 24 24 23 25 26 23 23 22 23 29 29 31 32 28 25 26 24 21 22 25 31 30 30 22 20 18 33 34 32 32 33 32 34 37
41 35 41 36 29 35 32 30 31 27 28 24 26 29 29 29 26 24 23 30 30 33 31 35 31 27 26 27 28 27 28 31 26 27 31 29 23 25 33 33 34 33 34 37 38
39 40 41 36 28 28 30 29 28 27 29 29 25 28 28 26 24 28 28 30 28 34 33 34 28 26 21 23 28 28 28 31 30 29 26 23 20 30 36 37 34 35 38 39 39
39 32 35 36 31 30 30 30 28 30 31 31 30 28 29 28 29 28 27 28 28 30 41 36 33 28 24 25 29 28 29 30 28 25 24 23 23 25 27 31 34 36 37 35 35
36 33 33 29 29 30 31 31 28 27 30 29 28 30 29 27 28 26 28 28 29 33 39 37 33 32 32 32 31 31 31 30 27 24 24 23 22 25 30 32 33 36 29 34 34
34 33 35 33 33 32 31 28 29 30 28 27 28 31 30 28 28 27 28 29 29 31 37 39 33 35 33 31 28 28 29 28 26 25 28 28 28 28 30 34 31 32 28 29 30
38 37 35 32 32 28 27 28 30 29 28 30 30 29 28 29 30 30 31 31 31 30 33 34 34 31 26 28 29 25 28 30 32 30 31 28 28 32 36 36 36 37 39 43 45